NOAA 16 DEB, 41410

Orbit data source: Space-Track

NOAA 16 DEB, 41410 is space debris in SSO originally from a launch on Thu, 21 Sep 2000 UTC launched from the Air Force Western Test Range (AFWTR). Debris objects in space refer to the collection of defunct objects orbiting the Earth. Examples of debris include non-operational satellites, rocket bodies, and fragments generated from explosions, collisions, or faulty payload assembly.

Loading next visibility...
Identifier
41410, 2000-055KP
Orbit
SSO
Country
Flag of USUS
Related business
Manufacturer
Unknown
Mission
Spacecraft
Bus & Motor
Unknown
Mass
Unknown
Launch date (UTC)
2000-09-21 (26 years ago)
Launch vehicle
Unknown
Launch site
Air Force Western Test Range (AFWTR)
Object type
Payload
Rocket body
Debris
Shape & HBR
Unknown shape, 0.1 m
Radar Cross Section
Medium (>0.1 m² and <1 m²)

Expand to show TLE details & history
Last TLE update: 4 days ago

TLE from 4 days ago
0 NOAA 16 DEB
1 41410U 00055KP  26260.33883785  .00001731  00000-0  81730-3 0  9995
2 41410  98.6954 300.3379 0019661 298.2650  61.6543 14.20974982544940
Epoch: 2026-09-17T08:07Z
TLE epoch observation values (Epoch: 2026-09-17T08:07:55.590Z)
Latitude
0.00004°
Longitude
-177.92123°
Altitude
818.273 km
Speed
7.447 km/s
True Right ascension
20h 01m 21s
True Declination
0° 00' 00"
Sunlit
Object was in full shadow at epoch
Visualization orbit readout
Latitude
Unknown
Longitude
Unknown
Altitude
Unknown
Speed
Unknown
Apparent Right ascension
Unknown
Apparent Declination
Unknown
Sunlit
N/A
Visualization observer readout
Local Sidereal Time
14:02:08
Azimuth
Unknown
Elevation
Unknown
Doppler factor
Unknown
Orbital elements
Apogee altitude
833.365 km
Perigee altitude
805.063 km
Semi-major axis
7,197.351 km
Eccentricity
0.00197
Inclination
98.6954°
RAAN
300.3379°
Arg. of periapsis
298.265°
True anomaly
61.85282°
Mean anomaly
61.6543°
Eccentric anomaly
61.75353°
Mean motion
3.55455 °/min
Orbital period
101.28 mins
BSTAR
0.0008173
Loading maneuver chart data...
Computing Atmospheric mass density...

Documentation

Showing up to 5 results
|